COSMOS 1275 DEB, 13464

Orbit data source: Space-Track

COSMOS 1275 DEB, 13464 is space debris in LEO originally from a launch on Thu, 04 Jun 1981 UTC launched from the Plesetsk Missile And Space Complex (PKMTR). Debris objects in space refer to the collection of defunct objects orbiting the Earth. Examples of debris include non-operational satellites, rocket bodies, and fragments generated from explosions, collisions, or faulty payload assembly.

Loading next visibility...
Identifier
13464, 1981-053FL
Orbit
LEO
Country
Flag of CISCIS
Related business
Manufacturer
Unknown
Mission
Spacecraft
Bus & Motor
Unknown
Mass
Unknown
Launch date (UTC)
1981-06-04 (45 years ago)
Launch vehicle
Unknown
Launch site
Plesetsk Missile And Space Complex (PKMTR)
Object type
Payload
Rocket body
Debris
Shape & HBR
Unknown shape, 0.1 m
Radar Cross Section
Medium (>0.1 m² and <1 m²)

Expand to show TLE details & history
Last TLE update: 18 hours ago

TLE from 18 hours ago
0 COSMOS 1275 DEB
1 13464U 81053FL  26149.78787973  .00008291  00000-0  24737-2 0  9998
2 13464  82.9057  63.2300 0025895  88.6634 326.3653 14.42739900254366
Epoch: 2026-05-29T18:54Z
TLE epoch observation values (Epoch: 2026-05-29T18:54:32.808Z)
Latitude
54.34624°
Longitude
-97.78294°
Altitude
743.085 km
Speed
7.497 km/s
True Right ascension
04h 52m 40s
True Declination
54° 10' 58"
Sunlit
Object was in daylight at epoch
Visualization orbit readout
Latitude
Unknown
Longitude
Unknown
Altitude
Unknown
Speed
Unknown
Apparent Right ascension
Unknown
Apparent Declination
Unknown
Sunlit
N/A
Visualization observer readout
Local Sidereal Time
22:19:23
Azimuth
Unknown
Elevation
Unknown
Doppler factor
Unknown
Orbital elements
Apogee altitude
764.967 km
Perigee altitude
728.068 km
Semi-major axis
7,124.654 km
Eccentricity
0.00259
Inclination
82.9057°
RAAN
63.23°
Arg. of periapsis
88.6634°
True anomaly
326.2005°
Mean anomaly
326.3653°
Eccentric anomaly
326.28294°
Mean motion
3.60909 °/min
Orbital period
99.75 mins
BSTAR
0.0024737
Loading maneuver chart data...
Computing Atmospheric mass density...

Documentation

Showing up to 5 results
|